Regional Weather Roundup
Issued by NWS

Home | Current Version | Previous Version | Graphics & Text | Print | Product List | Glossary On
Versions: 1 2 3 4 5 6 7 8 9 10 11 12 13 14 15 16 17 18 19 20 21 22 23 24 25 26 27 28 29 30 31 32 33 34 35 36 37 38 39 40 41 42 43 44 45 46 47 48 49 50
996
ASUS44 KJAN 221203
RWRMS

MISSISSIPPI HOURLY WEATHER ROUNDUP
NATIONAL WEATHER SERVICE JACKSON MS
600 AM CST MON DEC 22 2014

NOTE: "FAIR: INDICATES FEW OR NO CLOUDS BELOW 12,000 FEET WITH NO
SIGNIFICANT WEATHER AND/OR OBSTRUCTIONS TO VISIBILITY.

MSZ001>002-007>008-010>013-018>021-025>028-034>036-221300-
NORTHWEST MISSISSIPPI

CITY           SKY/WX    TMP DP  RH WIND       PRES   REMARKS
CLARKSDALE     CLOUDY    50  50 100 SE9       29.83F
CLEVELAND      CLOUDY    50  50 100 S8        29.83S FOG
GREENWOOD      CLOUDY    52  49  89 SE9       29.85S
6HR MIN TEMP:  50; 6HR MAX TEMP:  52;

GREENVILLE     CLOUDY    51  49  92 S8        29.82S
6HR MIN TEMP:  48; 6HR MAX TEMP:  51;

GRENADA        CLOUDY    50  48  93 S6        29.87S
OLIVE BRANCH   CLOUDY    46 N/A N/A S8        29.85S
OXFORD         CLOUDY    48  46  93 SE10G16   29.88S FOG
TUNICA         CLOUDY    50  48  93 SE13      29.84F FOG
$$

MSZ003>006-009-014>017-022>024-029>033-037>039-221300-
NORTHEAST MISSISSIPPI

CITY           SKY/WX    TMP DP  RH WIND       PRES   REMARKS
COLUMBUS AFB   CLOUDY    51  50  96 SE10      29.91S
6HR MIN TEMP:  49; 6HR MAX TEMP:  51;

CORINTH        CLOUDY    50  46  87 SE7       29.88F
GOLDN TRIANGLE CLOUDY    52  48  87 SE10      29.90F
STARKVILLE     CLOUDY    50  50 100 SE8       29.91R FOG
TUPELO         CLOUDY    51  47  86 S9        29.89S
6HR MIN TEMP:  48; 6HR MAX TEMP:  51;

$$

MSZ040-058-221300-
CENTRAL MISSISSIPPI

CITY           SKY/WX    TMP DP  RH WIND       PRES   REMARKS
JACKSON INTL   CLOUDY    53  51  93 SE6       29.86F FOG
6HR MIN TEMP:  51; 6HR MAX TEMP:  53; 6HR PCP: TRACE;

JACKSON HAWKNS CLOUDY    52  51  97 SE8       29.85F FOG
6HR MIN TEMP:  50; 6HR MAX TEMP:  52; 6HR PCP: TRACE;

MERIDIAN KEY   CLOUDY    52  51  97 E7        29.88F
6HR MIN TEMP:  51; 6HR MAX TEMP:  52;

MERIDIAN NAS   CLOUDY    52  51  97 E8        29.90F FOG
6HR MIN TEMP:  48; 6HR MAX TEMP:  52;

RAYMOND        CLOUDY    52  48  87 SE7       29.85F FOG
VICKSBURG      CLOUDY    52  50  93 S7        29.83F
6HR MIN TEMP:  47; 6HR MAX TEMP:  52;

$$

MSZ059>079-221300-
SOUTH MISSISSIPPI

CITY           SKY/WX    TMP DP  RH WIND       PRES   REMARKS
HATTIESBURG    FOG       54  54 100 E3        29.88S VSB 1/2
6HR MIN TEMP:  52; 6HR MAX TEMP:  54; 6HR PCP: TRACE;

MCCOMB         FOG       54  53  97 SE3       29.86R VSB 1/4
6HR MIN TEMP:  52; 6HR MAX TEMP:  54; 6HR PCP:  0.01;

NATCHEZ        CLOUDY    54  52  94 S9        29.83F
6HR MIN TEMP:  52; 6HR MAX TEMP:  54;

PINE BELT      CLOUDY    54  50  87 SE5       29.88F VSB 1/2
6HR MIN TEMP:  52; 6HR MAX TEMP:  54;

$$

MSZ080>082-221300-
COASTAL MISSISSIPPI

CITY           SKY/WX    TMP DP  RH WIND       PRES   REMARKS
BILOXI         CLOUDY    58  58 100 E9        29.88S
6HR MIN TEMP:  56; 6HR MAX TEMP:  58; 6HR PCP:  0.01;

PASCAGOULA     CLOUDY    58  57  97 E3        29.89R
6HR MIN TEMP:  56; 6HR MAX TEMP:  59; 6HR PCP: TRACE;

GULFPORT       LGT RAIN  58  57  97 E7        29.86F
6HR MIN TEMP:  55; 6HR MAX TEMP:  59; 6HR PCP: TRACE;

$$



USA.gov is the U.S. government's official web portal to all federal, state and local government web resources and services.